Wind_Speed
32 28 26 23 21 19 16 14 13 12 12 11 9 9 9 9 9 10 11 10 9 9 9 9 8 7 8 10 12 14 15 15 14 13 13 13 14 14 14 13 11 8 7 8 8 9 10 9 8 7 7 7 6 6 7 8 9 10 9 8 8 8 7 6 6 7 9 10 9 6 5 6 6 4 5 4 5 7 10 12 14 14 14 13 13
34 30 27 24 22 20 18 16 14 14 13 12 11 10 10 10 10 11 11 10 9 9 9 9 8 8 8 9 11 13 14 15 15 14 14 14 15 16 17 16 13 9 5 5 6 7 8 8 7 6 6 5 5 5 5 6 6 7 7 7 7 7 7 6 6 8 8 7 6 5 5 7 5 3 5 6 7 9 10 12 13 13 12 13 13
35 32 28 25 23 21 19 17 16 15 14 13 12 12 12 11 11 11 11 10 9 9 9 9 9 9 8 8 9 11 12 14 15 14 14 15 16 17 17 17 16 13 8 5 5 6 7 8 7 6 6 5 4 3 2 2 3 5 6 6 6 6 7 7 8 9 7 5 7 7 6 5 2 3 6 7 8 9 9 10 11 11 13 14 13
36 33 29 26 24 22 19 18 17 16 15 14 13 13 12 12 12 12 11 10 9 9 9 9 9 10 9 9 9 9 10 11 13 14 14 15 15 16 15 14 15 15 11 7 4 5 6 6 6 7 8 7 5 3 2 1 1 3 4 4 4 4 5 7 8 8 7 9 11 9 8 6 3 6 7 7 7 9 9 9 10 12 14 15 14
37 33 30 27 25 23 21 20 19 18 17 16 14 14 14 14 13 12 12 11 10 9 9 10 11 11 10 10 9 10 11 10 11 13 13 13 14 15 13 11 14 14 12 9 6 5 6 6 6 7 7 6 5 3 3 4 4 3 3 3 4 4 4 6 8 8 9 10 12 10 9 8 7 8 8 7 7 9 9 9 10 12 15 15 14
37 34 30 29 27 25 23 21 20 18 18 17 16 15 15 15 14 13 13 12 11 10 10 11 12 12 11 11 11 11 13 12 11 12 12 13 14 14 11 8 11 12 11 9 7 6 6 6 5 5 4 2 2 1 4 6 6 5 4 4 6 5 6 7 8 10 12 12 11 10 10 10 10 9 9 9 9 10 10 9 10 13 14 15 16
38 34 31 30 28 26 23 21 20 20 19 19 18 18 18 16 15 15 14 13 13 12 12 12 11 11 11 11 11 12 13 12 11 11 11 13 15 14 10 6 8 9 9 8 6 5 4 3 3 4 3 2 2 3 3 4 6 6 5 5 6 6 8 9 9 12 13 13 12 11 12 12 12 11 11 11 11 11 10 10 12 14 15 16 16
38 34 32 30 28 25 23 21 21 21 21 21 22 21 20 19 18 17 16 15 14 13 12 11 11 10 11 11 11 11 12 11 10 9 9 10 13 14 11 7 6 7 7 6 5 4 3 3 3 5 4 3 4 5 6 6 6 6 3 3 5 6 9 9 9 13 15 14 15 15 14 13 12 12 12 12 11 11 11 12 14 16 16 16 17
37 33 31 29 26 24 23 23 23 22 23 24 24 24 23 21 20 20 19 18 16 14 13 12 11 10 11 11 11 11 11 10 9 9 8 9 10 12 11 9 7 7 7 6 5 4 3 4 5 4 4 5 6 7 6 6 4 3 2 4 4 5 10 10 10 16 17 16 18 19 17 14 13 12 12 12 11 11 12 13 15 17 17 17 17
37 33 30 28 26 24 24 24 23 23 24 25 25 25 25 24 23 23 23 21 19 16 14 14 13 13 12 12 12 11 11 11 10 10 9 9 8 8 8 9 8 6 7 7 6 4 5 4 4 5 6 7 7 7 7 7 4 2 3 6 7 8 12 14 16 20 19 18 18 18 17 15 14 13 11 11 11 12 12 13 14 15 17 15 14
36 32 29 28 25 24 25 24 24 24 25 26 27 27 27 27 27 27 28 26 23 21 19 18 17 17 16 15 14 14 13 13 12 11 10 9 7 6 5 6 7 6 5 6 7 6 6 4 5 6 7 6 6 5 7 6 4 3 5 8 10 12 15 17 20 22 19 17 16 15 15 15 14 12 11 11 13 13 12 13 14 15 16 15 16
35 30 28 27 24 24 25 24 24 25 27 28 29 29 30 30 30 31 32 31 29 27 26 25 24 23 22 22 21 21 20 20 19 18 15 12 9 8 7 7 7 7 6 4 4 4 4 4 5 4 4 5 5 4 5 4 2 3 7 10 12 15 16 17 20 21 19 17 15 13 14 14 12 10 8 9 13 14 13 14 16 17 18 18 17
34 29 26 25 23 24 25 26 27 27 29 30 31 32 32 33 33 33 34 34 33 32 31 30 30 29 29 29 29 29 29 29 28 25 22 19 16 13 12 11 10 9 8 7 4 2 1 2 3 2 2 2 1 2 2 0 2 4 6 7 10 13 14 15 16 18 19 17 15 13 11 11 11 9 5 5 11 15 16 16 17 18 17 15 13
33 27 24 24 22 23 25 27 29 30 32 33 33 34 33 33 33 33 34 34 33 32 32 32 32 32 32 32 32 32 33 33 32 31 29 26 23 21 19 17 15 13 10 9 6 4 3 2 2 2 1 1 2 2 2 4 4 5 5 4 5 6 9 11 12 14 16 15 14 14 12 11 11 10 7 5 7 10 13 13 13 13 12 11 10
32 25 21 22 20 22 25 27 29 31 32 34 34 34 33 32 31 31 32 32 32 31 31 30 30 30 30 30 31 32 33 34 34 33 33 31 29 28 26 23 20 18 15 13 12 10 9 8 7 6 5 4 4 4 4 3 3 2 3 3 3 4 5 7 9 11 12 13 13 13 14 13 13 12 11 9 9 11 11 11 11 10 10 9 10
31 24 19 19 18 19 23 25 27 29 31 32 32 32 31 30 30 30 31 31 32 32 31 30 29 29 30 30 31 32 32 33 33 32 32 32 32 31 30 27 25 24 21 19 17 16 14 13 12 10 9 7 5 3 2 1 0 0 1 1 3 4 5 6 7 8 9 10 11 12 13 13 12 13 12 11 12 12 11 11 10 9 8 8 7
30 23 17 16 15 16 21 23 24 26 28 30 31 30 30 30 30 30 30 31 32 32 32 31 29 29 30 32 33 33 34 33 33 32 32 32 32 31 31 30 29 27 25 23 21 19 18 16 15 13 12 10 8 6 4 2 2 2 3 4 5 6 6 7 7 7 8 9 10 11 11 12 11 11 11 11 10 9 8 8 7 7 6 5 4
29 23 16 14 13 13 17 21 22 24 26 28 29 29 29 29 29 29 30 30 31 31 32 32 31 30 31 33 34 34 35 34 34 34 33 32 30 29 29 28 28 27 26 24 22 20 19 18 16 16 15 13 12 10 8 7 5 3 0 3 5 7 8 9 9 9 9 9 10 11 11 11 10 10 9 8 7 5 5 4 4 3 2 1 2
29 22 15 13 12 11 13 17 19 21 23 25 26 27 26 27 27 27 28 29 30 30 31 32 31 30 30 32 33 33 34 34 34 34 34 33 31 29 28 26 25 25 25 24 23 21 19 18 17 16 16 15 14 13 12 11 11 9 7 4 0 3 6 8 10 10 10 10 10 10 10 10 9 8 6 4 3 2 2 2 1 1 2 3 5
28 21 13 11 11 9 9 12 16 18 20 22 23 24 24 25 26 26 27 28 29 30 30 31 31 30 30 31 31 31 32 33 33 33 34 34 33 32 30 28 26 25 24 23 23 21 20 19 18 17 16 15 15 15 15 14 13 12 11 9 6 3 2 4 6 8 9 9 9 9 9 9 7 5 4 4 4 3 2 3 3 4 6 9 11
27 20 12 10 10 9 7 9 11 13 16 19 21 22 22 23 24 25 26 27 27 29 30 30 30 30 30 30 30 30 30 31 32 33 34 35 34 34 33 31 29 27 25 23 23 22 22 21 20 19 17 16 16 16 17 16 14 14 14 13 11 9 7 5 3 3 4 5 6 6 6 6 6 7 6 6 5 4 5 6 7 10 13 15 17
27 20 11 8 9 9 7 7 9 10 13 16 18 19 19 20 21 22 23 25 26 28 29 30 30 30 30 30 30 30 30 30 31 32 33 34 35 35 35 34 32 30 28 26 25 25 25 23 22 20 19 18 18 18 18 17 16 16 16 17 16 14 11 9 8 7 6 6 6 7 7 8 9 8 7 7 7 8 10 12 14 16 18 19 19
27 19 10 7 8 8 7 8 9 10 11 13 15 16 17 18 19 20 20 22 24 26 28 28 29 29 29 29 29 30 29 30 30 31 32 33 34 35 36 36 35 34 32 30 28 28 27 26 24 22 21 20 19 19 19 19 18 18 18 19 19 18 16 14 12 11 11 10 11 11 11 11 11 10 10 10 12 14 17 18 19 19 20 20 20
27 18 8 6 7 8 8 7 8 9 10 11 12 14 15 17 18 18 19 20 23 25 26 27 27 28 28 28 28 29 29 29 30 30 31 33 34 35 36 36 36 36 35 33 30 29 28 28 27 25 24 23 22 21 21 20 20 20 20 20 21 21 21 19 16 15 14 14 14 14 14 14 14 15 16 17 19 20 21 21 21 20 20 20 20
27 17 7 5 7 8 8 7 7 9 10 11 12 13 14 16 17 17 19 21 23 25 26 26 26 27 27 27 27 28 28 29 30 31 31 32 33 35 36 37 37 37 36 35 33 31 30 29 29 28 27 26 26 24 23 22 22 21 22 23 24 24 24 23 21 19 19 18 18 18 18 19 20 22 23 23 23 22 22 21 21 21 21 20 19
28 16 5 5 7 8 8 7 7 9 11 12 12 13 14 16 17 18 19 21 22 24 25 25 25 26 26 26 26 27 27 28 30 31 32 32 33 34 35 36 37 37 37 36 35 33 32 31 31 31 30 29 29 27 26 25 24 23 23 24 25 26 26 25 24 23 23 23 24 24 24 25 26 26 25 24 23 23 22 21 21 21 20 20 19
28 15 5 6 8 9 8 7 7 9 11 13 13 13 14 16 17 19 20 21 21 22 23 24 25 26 26 25 25 25 27 28 29 31 32 32 33 34 34 35 36 37 38 38 36 34 33 33 33 32 32 31 30 29 28 27 26 25 24 24 25 26 26 25 25 26 26 26 27 27 27 26 26 25 25 24 23 22 22 21 21 20 20 19 18
29 14 5 8 8 9 8 6 7 9 12 13 14 14 15 16 17 19 20 21 21 21 22 23 24 25 25 24 24 24 26 28 29 30 31 32 33 33 34 34 36 37 38 39 37 35 34 34 34 33 33 32 32 31 30 29 28 27 25 24 23 24 23 23 24 25 25 25 25 26 25 25 25 24 24 23 22 22 21 20 20 19 18 18 17
29 13 7 9 9 10 9 7 8 9 12 14 14 15 15 15 17 18 20 21 21 21 21 22 23 24 24 24 24 24 26 27 29 30 31 31 32 33 34 34 35 36 38 39 38 36 35 34 34 34 34 34 33 32 31 30 29 28 27 25 23 21 20 20 21 22 22 22 22 22 23 23 23 23 22 22 21 21 20 19 18 18 17 16 15
29 12 8 11 10 10 9 8 9 10 12 14 14 15 15 15 16 18 19 19 20 20 21 22 23 24 24 23 24 24 25 26 28 30 31 31 32 33 34 34 35 36 37 38 38 37 35 34 35 34 34 34 34 33 32 30 29 28 27 26 24 21 19 18 19 19 18 18 18 18 18 19 19 20 20 20 19 19 18 18 17 16 15 14 14
29 11 9 12 11 11 10 9 9 10 11 14 14 15 15 15 15 16 17 17 18 19 20 21 22 23 23 23 23 24 25 26 27 29 31 32 33 33 34 34 35 35 36 37 38 38 36 35 35 34 34 34 34 33 32 31 29 28 27 26 25 22 20 19 18 16 15 14 13 13 13 14 14 15 15 15 16 16 16 15 15 14 13 12 13
28 11 9 13 12 11 11 10 10 10 11 13 14 15 16 15 15 15 16 16 17 18 19 20 21 22 23 23 23 24 24 25 26 28 29 31 32 33 33 34 34 34 35 36 37 38 37 36 35 34 34 34 34 33 32 31 30 28 27 26 25 23 21 20 18 16 14 12 11 10 9 9 10 10 10 11 12 12 12 13 12 12 11 11 12
27 10 8 13 13 11 12 10 10 10 10 12 14 15 16 15 15 15 16 16 17 18 18 19 20 21 22 22 23 23 24 24 25 27 28 29 31 32 32 33 33 34 34 35 36 38 38 36 35 34 34 34 33 33 32 31 30 29 28 27 26 24 22 21 18 16 14 12 11 9 8 7 7 7 8 8 9 9 10 10 11 10 10 10 10
26 10 7 13 14 12 12 11 10 10 10 11 12 14 15 14 14 14 14 15 15 16 17 18 19 20 21 21 22 23 23 24 25 26 27 29 31 31 32 32 33 33 33 34 35 37 38 37 35 34 34 34 33 33 33 32 32 31 30 29 27 25 24 21 19 16 14 12 11 10 9 8 6 5 5 6 6 7 8 9 9 9 9 9 9
25 11 5 12 16 12 12 12 10 10 9 10 11 11 12 12 12 11 12 13 13 14 15 16 18 19 19 20 21 22 23 23 24 25 27 29 30 31 31 32 32 32 32 33 34 36 38 38 36 35 35 34 34 33 34 34 34 33 32 31 29 28 26 23 20 17 15 12 11 9 9 8 7 6 4 4 5 6 7 7 8 8 8 8 8
24 12 1 10 16 14 12 13 11 10 8 8 9 10 10 10 10 10 10 11 11 12 13 14 16 17 18 19 19 21 22 23 24 25 26 28 30 30 31 31 32 32 32 32 33 35 37 38 36 35 35 35 34 34 35 36 35 35 34 33 32 31 29 26 23 20 17 14 12 10 8 8 7 5 4 4 5 7 8 8 8 7 7 7 7
23 14 3 7 16 16 13 13 11 10 9 8 8 9 9 8 9 8 8 9 9 10 11 13 14 16 17 18 18 20 21 22 23 23 25 26 28 29 30 31 31 31 31 32 32 33 36 37 37 36 35 35 34 34 36 37 37 36 35 34 33 32 31 28 25 22 18 15 13 10 8 7 6 5 4 4 6 7 8 9 8 8 7 7 7
22 16 7 5 15 19 16 14 12 11 9 8 8 8 8 7 7 7 7 8 8 8 10 12 14 16 16 16 17 19 20 20 21 21 22 24 26 27 29 30 30 30 30 31 32 32 34 36 37 36 36 35 34 34 36 38 37 37 36 35 34 33 32 31 28 24 20 15 12 10 8 6 5 5 4 4 6 8 9 9 9 8 7 7 6
21 17 10 4 12 19 19 16 13 11 10 9 8 7 7 7 7 7 7 8 6 7 10 12 14 16 15 15 16 17 18 19 19 20 20 21 23 25 27 28 28 29 29 30 31 32 33 35 37 37 35 35 34 35 36 38 38 38 38 37 36 35 35 34 31 27 23 18 15 12 9 7 5 4 5 5 7 8 9 9 9 8 7 6 7
19 17 12 7 9 17 21 20 16 12 11 9 8 7 7 6 6 7 7 8 7 7 10 12 14 14 14 14 15 16 17 17 18 18 19 19 21 23 25 26 27 27 28 29 30 31 32 33 35 36 35 34 33 34 35 37 38 39 39 38 38 38 38 38 35 31 28 25 22 19 15 11 8 6 6 7 8 8 9 9 8 8 7 7 8
18 16 13 8 9 14 20 24 20 15 12 10 8 7 7 6 6 6 7 7 7 8 10 11 12 12 13 14 15 16 16 16 16 17 17 18 19 21 23 24 25 26 27 28 29 30 31 32 33 35 35 34 33 32 32 34 36 38 39 40 40 41 42 42 39 36 33 31 29 26 23 20 16 13 11 10 10 10 9 9 9 9 9 10 11
16 15 12 9 8 13 17 23 24 18 13 11 10 8 7 6 6 6 7 7 7 8 9 10 10 11 12 13 14 14 15 15 15 15 16 17 18 19 20 22 23 24 25 27 28 29 30 31 32 33 34 35 34 32 31 32 34 36 39 40 41 43 45 46 44 41 39 37 35 32 29 27 25 22 19 17 16 15 13 12 12 12 13 14 15
15 14 12 9 8 12 16 22 25 21 16 13 11 9 8 7 6 6 6 7 7 7 8 9 9 10 11 12 12 12 13 13 14 14 15 15 16 17 18 20 21 22 24 25 26 27 28 29 30 31 32 34 35 34 33 32 32 33 37 40 41 43 45 47 47 46 45 43 40 37 35 33 32 30 28 25 23 21 19 17 17 17 17 18 19
15 14 12 10 8 11 15 21 25 23 18 15 13 11 9 8 7 6 6 6 7 7 7 8 8 9 10 11 11 11 11 12 13 13 14 14 14 15 17 19 20 21 22 23 24 25 26 27 28 30 31 32 33 34 34 33 31 31 33 36 38 41 43 45 46 47 48 48 46 43 41 39 38 37 34 31 29 26 23 22 21 21 21 21 21
15 14 13 11 9 11 15 20 24 24 20 16 14 12 10 9 8 7 7 6 6 6 6 8 8 9 10 10 10 9 9 10 11 12 12 13 13 13 15 17 19 19 20 21 22 23 24 26 27 28 29 30 31 33 34 34 32 30 30 31 33 36 40 42 44 46 47 48 48 46 45 44 44 42 39 36 34 30 27 26 24 23 23 22 22
15 14 12 11 9 11 15 20 24 24 22 19 16 14 12 10 9 8 8 7 6 6 6 7 8 9 9 9 8 8 8 8 9 10 11 11 11 12 14 16 17 18 18 19 20 21 23 24 25 26 27 28 29 31 32 33 33 32 31 30 30 32 35 38 40 43 45 47 47 46 46 46 46 45 43 40 38 34 31 28 26 24 23 22 21
15 14 12 11 9 11 15 20 24 25 24 21 18 15 13 11 10 8 8 8 7 7 6 7 8 9 8 8 7 6 6 7 7 8 9 9 10 11 13 15 15 16 16 17 18 19 21 22 23 24 25 27 28 29 29 31 32 32 32 31 30 30 31 34 36 38 40 42 43 44 44 45 46 46 44 42 39 36 33 30 27 24 22 22 20
16 15 12 11 9 11 15 19 24 26 25 23 19 17 14 12 11 9 8 9 9 8 8 8 8 8 8 7 6 5 5 5 6 7 7 8 9 10 12 13 14 14 15 15 16 17 18 20 21 22 23 25 26 27 27 29 30 31 31 31 30 30 30 31 31 33 35 36 37 38 40 42 44 44 43 42 40 37 35 32 28 25 24 23 21
17 16 13 11 10 11 16 20 24 27 27 25 21 18 16 14 13 11 10 10 10 9 9 9 9 8 8 7 6 4 4 4 4 5 6 7 8 9 11 12 13 13 13 13 14 15 16 17 18 19 21 22 24 25 26 27 29 29 30 30 30 30 31 31 31 30 31 31 31 32 35 37 39 40 40 39 38 36 35 33 31 28 26 25 24
19 17 14 11 11 12 17 21 24 26 27 26 23 20 18 15 14 13 12 12 11 11 11 10 9 9 8 7 6 4 3 3 3 4 4 5 7 8 10 11 11 11 12 12 12 12 14 15 16 17 18 20 21 22 24 25 26 28 29 29 29 29 30 30 30 30 30 29 28 28 30 32 32 33 35 35 34 33 32 31 30 29 27 27 26
20 19 16 12 11 12 17 21 24 27 27 27 25 22 20 17 16 15 14 13 13 12 12 12 11 10 8 7 6 5 4 3 3 3 3 4 6 7 8 9 10 10 10 10 10 10 11 13 14 15 16 17 18 20 21 23 24 25 27 27 27 28 28 29 28 28 28 28 28 27 28 29 28 28 29 30 30 29 28 27 26 26 25 24 24
Wind_Direction
10 7 8 10 11 14 12 7 1 356 352 353 357 1 5 7 9 12 13 16 19 22 25 26 29 37 45 49 49 48 47 48 55 59 56 47 37 29 23 18 15 18 35 48 59 69 77 85 97 111 127 146 167 191 210 223 233 241 248 246 243 245 245 249 262 273 276 282 289 284 276 275 281 247 198 223 246 261 279 288 294 295 296 300 305
10 9 12 14 15 18 16 11 4 1 1 4 8 11 14 13 12 12 12 13 14 17 19 21 25 30 38 44 46 50 54 58 64 66 60 53 49 44 37 32 29 28 37 51 58 67 73 78 81 90 102 115 136 156 176 196 209 220 230 234 238 249 257 260 259 256 259 272 274 262 268 267 270 234 230 266 278 284 290 291 292 294 296 299 304
10 10 14 17 18 20 17 12 5 5 7 10 14 16 15 13 12 9 8 8 10 12 15 20 23 26 31 38 42 49 56 60 63 64 59 56 56 54 44 38 38 37 44 54 57 63 69 76 77 78 70 63 79 102 135 179 207 221 227 230 235 247 258 257 248 243 237 238 242 236 237 248 271 280 271 279 285 290 291 292 293 296 297 298 303
10 11 16 19 21 20 16 12 10 10 12 15 18 16 14 12 10 7 8 9 10 14 20 24 26 28 31 35 41 49 52 56 61 60 57 55 56 55 46 38 39 41 46 50 55 64 65 65 64 64 52 39 29 22 27 13 313 264 248 245 238 236 252 252 244 235 220 225 240 240 235 240 264 287 280 276 282 287 293 295 290 293 295 295 299
11 12 18 21 22 20 16 15 15 15 17 20 19 17 15 14 13 12 13 14 17 21 28 31 33 33 36 42 46 49 43 52 59 54 52 52 53 56 50 39 37 42 49 51 56 67 61 56 53 56 50 27 1 357 46 30 353 314 269 263 254 240 239 245 247 235 222 232 246 248 253 262 266 271 268 268 273 279 294 298 289 287 287 290 295
11 13 18 22 22 21 21 21 21 22 23 24 22 21 20 19 17 17 18 21 25 30 34 34 36 37 43 46 46 46 42 53 55 46 48 50 57 66 63 41 33 41 50 55 64 74 65 58 47 44 55 45 353 4 52 26 343 312 281 273 265 250 226 229 239 233 225 234 247 251 260 267 266 266 267 269 270 275 293 305 300 288 281 287 294
12 14 19 24 25 26 28 28 28 28 27 27 26 25 23 21 19 20 23 27 32 37 40 38 39 41 47 47 45 44 43 49 47 42 44 48 63 75 74 47 27 34 44 55 68 77 61 46 27 15 33 53 348 331 0 346 326 312 286 277 280 265 241 232 226 231 237 243 252 255 255 259 267 273 271 271 270 278 294 307 305 290 283 287 293
13 15 21 26 29 31 33 33 34 33 31 31 28 27 25 24 25 27 31 34 39 42 45 44 45 48 51 48 46 44 41 41 40 39 37 47 64 74 75 58 29 20 27 42 51 53 37 15 353 351 354 332 313 310 309 303 305 302 281 271 289 281 267 259 239 244 253 255 255 254 250 254 267 272 270 269 271 283 289 298 299 289 286 289 293
14 17 24 30 33 34 36 37 38 37 36 34 31 31 30 31 33 36 40 42 44 47 49 50 51 54 51 47 45 42 37 33 32 35 38 48 61 70 74 68 46 18 7 11 19 18 1 345 337 332 329 327 330 330 322 314 303 279 214 198 230 254 262 258 243 248 251 251 253 253 249 251 262 268 267 263 270 285 282 285 288 285 283 282 285
15 18 27 34 35 37 40 41 41 41 41 40 38 39 40 41 43 46 49 50 52 53 53 54 54 52 47 43 40 36 33 30 31 34 40 46 54 65 73 77 71 44 12 4 18 5 341 342 330 326 336 346 352 346 330 323 313 266 190 188 197 216 237 235 231 238 242 247 252 251 244 248 262 269 267 264 275 284 278 277 278 276 275 274 281
16 20 31 37 38 42 43 45 45 46 48 48 49 50 51 52 53 55 57 58 59 59 58 56 54 51 48 46 45 44 42 41 41 40 42 42 46 54 64 81 92 88 49 22 30 15 357 347 326 334 341 333 330 323 313 307 291 234 194 193 196 210 229 231 229 231 236 242 247 245 241 251 263 266 267 275 280 279 274 267 263 260 260 270 284
18 22 35 39 41 48 49 51 53 54 57 57 58 59 60 60 60 61 63 64 65 65 63 62 60 59 58 59 59 58 57 55 54 53 51 52 53 56 61 73 92 105 102 79 57 26 11 337 322 332 323 309 307 301 299 294 251 188 196 203 207 219 228 229 226 227 230 235 240 243 245 250 252 253 262 269 263 258 257 253 251 253 258 271 282
19 24 38 42 46 54 55 59 61 63 64 65 65 65 65 65 65 65 66 68 68 69 68 68 67 66 66 66 66 64 63 61 60 59 59 59 60 62 65 69 78 92 107 116 131 149 156 303 316 312 302 308 306 292 297 119 134 143 168 192 207 220 224 223 222 224 227 231 236 236 234 232 229 235 248 259 246 239 242 246 252 258 263 273 281
20 26 41 46 51 59 60 64 66 68 69 68 67 67 68 68 68 68 68 69 70 71 71 71 69 67 67 67 67 66 65 64 63 63 63 63 64 66 67 68 74 83 93 106 119 122 117 95 80 87 67 116 153 158 136 123 121 122 124 136 167 198 210 215 218 221 225 230 232 228 226 225 225 235 242 254 253 245 250 255 263 268 270 279 287
20 26 43 51 55 62 64 67 69 71 70 69 68 67 69 70 70 69 69 70 70 71 71 71 68 66 66 67 67 66 67 66 65 64 65 67 68 70 71 72 77 83 88 93 98 96 95 92 91 94 92 98 108 124 131 120 114 110 113 122 141 165 188 204 213 221 227 231 233 233 236 237 239 246 252 259 268 274 280 282 284 284 284 290 298
20 26 44 56 60 65 66 68 70 72 71 71 70 69 70 71 71 70 71 71 70 70 70 70 69 68 67 67 66 67 68 67 67 67 67 68 70 71 73 75 76 79 83 85 87 88 87 87 88 89 89 87 83 82 80 75 229 234 183 200 202 196 198 203 211 218 224 230 233 235 238 241 245 251 258 266 274 281 286 287 287 290 296 301 304
19 25 43 59 65 67 68 68 69 71 72 73 72 71 71 71 71 71 71 71 71 70 69 70 70 71 69 68 68 69 69 67 67 68 67 68 69 69 70 71 71 72 73 75 78 80 81 82 83 81 79 75 69 59 45 20 306 269 247 239 231 224 223 222 223 225 226 228 229 231 234 238 245 253 263 273 281 284 282 282 288 294 296 297 307
19 24 42 61 68 72 70 67 67 69 73 76 75 73 71 70 70 70 71 71 71 71 71 70 72 72 70 69 70 70 70 69 68 68 68 67 67 66 65 66 67 68 67 68 70 72 74 76 77 75 73 69 65 62 58 54 49 45 299 240 237 237 235 235 237 238 235 233 233 234 237 242 251 263 271 275 275 270 270 280 288 281 275 311 4
19 23 40 61 68 75 75 68 65 67 73 77 78 74 71 70 70 70 71 72 72 73 73 72 72 73 72 71 72 72 71 70 69 69 68 66 65 64 63 63 64 65 65 65 65 65 65 66 66 65 65 64 62 59 57 56 54 56 57 60 76 241 237 238 239 238 235 234 237 241 245 252 258 263 259 245 225 228 244 237 208 158 86 63 69
19 22 38 62 70 74 80 72 63 64 72 78 78 75 73 72 71 70 71 73 74 74 75 75 74 73 73 73 73 73 71 70 69 69 67 65 64 63 62 62 62 63 63 64 64 64 62 60 60 57 54 52 52 51 51 50 50 53 55 58 65 79 153 216 225 229 231 232 236 240 244 246 242 225 193 173 173 181 176 156 130 102 91 90 92
19 22 37 63 73 71 76 77 62 61 72 79 79 76 75 75 74 72 72 72 74 75 75 76 75 74 73 73 73 72 71 70 69 69 68 65 63 62 62 62 63 64 64 65 65 65 64 61 59 57 52 45 45 46 46 45 45 49 52 55 59 68 78 93 123 169 197 209 213 213 211 199 182 165 156 157 162 156 137 120 109 103 100 100 101
18 21 34 64 78 70 68 74 64 64 75 82 82 78 76 77 77 75 74 73 75 77 76 76 76 76 74 72 72 72 72 71 70 70 68 65 63 61 61 61 61 62 64 66 67 67 66 63 61 59 55 50 47 47 46 45 44 46 49 53 57 64 71 79 90 106 129 146 153 154 152 151 148 144 143 142 135 125 117 110 108 106 106 106 105
16 21 34 67 83 73 68 73 69 70 77 85 86 83 80 80 79 77 76 76 77 78 77 77 77 77 75 73 72 72 73 72 70 69 67 64 63 61 59 59 58 58 61 64 67 67 66 65 63 61 60 57 53 50 50 48 47 47 50 53 57 63 69 76 87 101 113 122 129 131 129 129 130 130 129 124 118 113 111 110 109 109 109 107 106
13 21 36 76 90 77 72 77 76 73 77 89 93 87 83 83 82 78 78 79 79 78 77 77 77 77 75 73 72 73 73 72 70 68 67 65 62 61 59 57 56 55 56 59 62 64 65 66 65 63 62 61 59 56 54 52 52 51 52 55 57 60 65 72 82 93 102 108 112 114 115 117 120 120 118 115 113 113 112 112 111 110 109 108 108
10 20 45 93 100 85 76 80 81 78 79 93 100 93 86 84 85 82 81 82 81 80 78 77 76 75 75 74 73 72 72 71 70 68 67 65 62 60 59 57 55 54 53 55 57 60 62 64 66 64 62 61 61 60 58 56 54 54 54 56 58 60 64 69 77 86 92 98 102 106 109 112 113 113 113 114 114 113 112 112 111 111 112 112 112
7 20 62 115 112 96 84 83 84 84 84 94 103 99 90 87 88 86 85 84 83 82 79 77 75 73 73 75 74 72 72 71 69 68 66 64 62 60 59 57 55 54 52 53 54 56 58 61 64 64 64 63 62 62 62 60 58 56 57 57 59 62 66 71 77 85 91 97 101 105 107 109 111 112 113 113 113 113 112 113 115 116 117 116 110
3 18 84 131 123 108 96 90 86 85 87 95 105 104 95 92 92 89 87 87 86 84 80 76 74 71 72 75 76 74 71 71 69 66 65 62 60 59 58 57 56 54 52 51 51 53 55 57 60 62 64 63 62 62 63 63 63 61 61 61 63 65 69 74 78 85 91 97 102 105 108 109 111 112 112 113 113 114 116 119 121 122 119 112 104
0 17 106 139 132 117 110 102 90 88 89 98 109 108 100 97 96 92 90 89 87 84 79 76 75 72 72 74 76 76 73 70 68 65 63 61 59 58 58 57 56 54 52 51 50 51 52 53 56 59 62 63 63 63 62 63 64 65 66 66 68 70 72 76 80 85 90 96 101 106 109 111 112 113 115 116 118 120 122 125 125 122 115 107 99
359 17 121 143 138 125 121 116 98 92 92 100 112 114 108 104 100 96 94 90 86 82 78 76 76 75 74 75 77 76 73 70 67 64 62 59 58 57 57 57 56 55 53 52 50 50 51 52 52 54 57 60 61 61 62 62 63 65 67 69 71 74 78 80 84 88 92 97 102 106 110 113 115 117 119 121 122 125 127 128 125 118 110 103 94
358 18 129 146 142 131 130 125 105 97 94 99 112 119 117 113 105 99 98 92 86 82 78 77 77 77 76 77 78 77 74 70 67 63 60 57 56 56 56 56 55 55 54 53 51 51 52 52 52 51 52 53 55 56 57 58 59 61 65 68 70 73 78 83 87 89 93 97 101 105 109 113 116 118 121 124 127 129 130 127 122 115 109 102 91
358 19 133 148 145 136 137 130 112 104 99 99 109 120 123 121 109 101 102 96 89 84 81 80 78 78 79 79 79 77 75 70 66 63 58 55 54 54 54 54 55 55 54 53 52 52 52 54 53 52 50 49 49 50 51 53 54 57 60 64 67 68 71 76 82 87 92 95 99 103 106 111 114 118 121 125 128 130 129 125 120 116 110 100 90
357 20 137 151 149 142 141 134 119 112 106 103 107 118 125 125 113 105 107 101 93 88 84 84 82 80 80 80 80 78 76 70 66 63 57 54 52 52 53 53 54 55 54 53 52 52 53 55 55 53 51 49 48 48 49 50 50 52 54 57 60 62 64 66 71 77 84 90 97 104 110 115 118 121 124 126 129 129 127 125 123 120 112 101 92
356 17 140 154 154 147 144 136 124 119 112 111 110 115 123 125 117 108 108 105 97 91 87 87 85 82 81 80 80 78 76 71 66 62 57 54 53 53 53 53 54 55 55 54 53 52 52 55 56 55 52 50 49 49 51 51 50 51 51 53 54 56 57 58 60 64 70 76 84 94 105 119 131 139 141 139 136 135 134 134 133 128 120 110 99
354 12 141 160 160 151 146 139 130 125 118 119 115 115 122 126 122 113 108 106 100 94 92 93 89 85 82 80 79 77 75 71 66 62 58 54 53 53 52 53 54 55 56 55 54 53 53 54 56 56 54 52 51 52 53 54 54 53 53 53 53 54 53 52 52 53 56 61 67 75 83 93 107 129 145 150 149 148 148 148 146 139 130 118 105
351 3 139 166 167 158 149 143 135 133 126 126 124 120 124 128 128 121 111 106 101 98 99 101 95 88 85 82 80 78 75 71 66 63 58 55 53 52 52 53 54 55 56 56 55 55 54 54 56 57 55 53 54 55 56 57 57 57 56 55 54 54 53 51 49 47 47 50 55 61 66 71 75 87 108 144 168 173 170 164 158 147 135 122 107
347 352 121 173 174 167 153 146 140 139 137 133 133 128 130 133 132 127 118 110 103 101 103 106 101 93 90 86 82 79 76 72 67 64 58 54 53 51 51 52 54 55 56 56 56 56 55 55 57 58 56 55 56 58 59 59 58 57 56 55 54 53 51 49 46 44 43 44 48 54 60 64 65 74 96 140 174 183 183 177 169 157 144 130 118
342 341 327 182 180 176 161 150 145 146 148 145 139 134 136 139 138 132 125 118 109 104 104 105 102 97 95 91 87 82 78 74 70 66 60 55 52 50 49 51 53 55 56 57 56 56 56 56 57 59 58 57 58 60 60 59 57 56 54 53 52 51 50 47 44 42 41 41 46 51 58 64 66 73 95 145 175 183 185 183 178 167 154 141 130
337 335 319 208 186 184 174 159 152 153 158 158 147 137 140 145 145 141 135 128 116 109 108 103 101 103 100 95 90 86 82 78 73 69 63 57 53 50 48 50 52 54 56 58 57 56 56 56 57 59 60 59 61 62 60 59 58 56 54 53 51 50 48 46 44 42 43 44 48 53 60 66 72 82 95 128 163 179 183 183 180 170 157 145 128
332 332 319 256 194 189 186 175 162 161 166 167 158 145 146 149 145 141 138 135 125 115 113 106 106 108 104 97 93 90 87 81 75 70 65 59 54 51 48 49 51 54 56 59 58 57 57 57 57 58 59 60 61 63 61 59 58 56 55 53 52 50 48 45 44 45 47 50 54 59 64 72 86 101 110 121 145 167 175 176 175 169 159 141 115
327 329 320 283 207 193 193 189 176 170 173 174 170 160 157 156 149 141 136 135 130 121 114 111 112 112 104 97 93 91 88 82 76 70 65 60 55 51 49 47 49 53 56 58 59 58 57 57 57 58 59 59 61 62 61 59 58 57 56 55 54 51 49 47 47 49 52 54 57 59 61 66 74 88 103 112 125 145 158 162 162 157 147 127 103
321 324 321 296 225 197 196 197 189 179 178 180 181 175 170 165 157 150 143 136 129 122 117 117 118 112 101 95 92 90 86 81 76 71 66 62 57 52 49 47 47 51 55 58 59 59 58 58 58 58 59 59 59 59 59 58 59 59 58 57 57 54 52 51 51 53 56 57 58 59 61 63 66 72 83 94 104 117 130 137 136 130 120 108 95
314 317 317 303 240 203 196 199 196 187 182 185 187 187 182 172 164 160 153 143 136 129 123 124 122 113 102 96 93 90 86 82 79 74 69 64 58 52 48 46 46 49 54 57 59 59 58 58 58 58 59 59 59 57 56 56 58 60 60 60 59 57 55 53 54 56 58 59 60 61 63 65 67 71 76 81 87 94 101 106 107 105 102 96 90
305 309 308 301 250 211 197 197 196 190 186 189 191 192 189 181 169 166 160 150 148 144 132 127 124 114 105 102 98 94 90 86 82 76 71 65 58 52 47 46 46 49 53 57 58 58 58 58 57 57 58 59 59 58 56 55 57 60 61 62 60 58 57 56 56 57 59 61 62 63 65 67 69 71 73 77 80 83 87 91 94 95 93 89 85
294 299 301 296 258 218 200 195 194 190 187 190 192 191 191 187 177 170 169 160 156 156 140 130 127 116 112 109 102 98 93 87 82 77 73 66 58 51 46 45 46 48 52 56 59 58 57 57 57 57 57 57 59 59 57 56 56 58 61 61 60 59 58 57 57 58 59 61 62 64 66 68 70 70 71 74 76 79 83 87 89 89 87 84 82
283 289 294 294 266 223 203 194 192 189 185 188 191 191 190 188 182 175 175 172 168 165 147 137 132 122 118 113 105 100 93 86 82 79 74 67 58 50 45 45 46 47 50 54 58 59 57 57 56 57 57 57 57 59 59 58 56 56 58 59 59 59 59 59 58 59 60 60 61 63 65 68 70 70 70 71 73 75 79 82 84 84 83 82 83
273 279 288 293 272 228 206 195 190 188 186 187 189 192 193 191 188 183 180 179 175 170 156 144 137 128 123 116 109 102 92 85 80 77 75 68 58 49 45 46 47 47 49 52 56 59 59 58 57 57 57 57 57 58 59 60 58 56 56 56 56 58 60 61 60 60 60 61 61 62 63 66 68 69 69 70 71 72 73 76 78 80 80 81 83
265 270 279 290 273 229 210 198 191 189 188 188 189 191 194 195 193 189 186 183 179 175 165 153 142 133 127 120 114 106 93 85 78 74 72 67 57 48 46 48 48 48 49 50 53 57 59 60 59 58 58 58 58 57 58 60 59 57 56 55 55 55 59 62 62 61 61 62 62 62 62 64 66 67 67 68 69 70 70 70 72 74 76 77 78
257 261 268 280 267 225 209 202 194 191 190 189 190 191 193 195 193 191 190 188 186 182 173 162 151 141 135 130 124 114 98 87 79 73 70 66 58 51 49 50 51 50 50 50 50 53 57 60 60 59 58 58 57 57 57 58 60 59 57 56 55 54 56 59 61 62 61 61 61 62 63 64 65 65 65 66 67 67 68 68 68 68 70 70 69
249 253 257 267 261 224 206 203 199 196 193 191 191 191 193 196 197 194 194 193 191 188 181 171 161 153 149 145 138 127 109 92 83 77 72 68 61 55 51 51 53 53 51 50 48 48 52 57 59 58 57 57 57 56 56 57 59 60 58 56 55 54 55 56 58 60 62 61 60 61 62 63 64 64 64 64 65 66 67 67 67 66 66 65 64
243 248 249 256 260 231 206 203 203 201 198 195 193 192 194 198 202 201 199 197 194 191 186 180 173 168 165 163 156 149 139 118 102 90 79 71 62 56 52 50 52 53 52 50 46 45 46 51 55 56 55 55 55 56 56 56 58 59 59 57 55 54 54 55 55 57 60 62 61 61 61 61 61 61 61 61 62 64 66 66 66 66 65 65 64
238 244 245 245 250 233 206 200 204 205 202 199 196 194 195 198 202 204 203 202 199 195 192 188 185 183 182 183 179 173 168 158 136 116 95 76 66 59 54 51 50 52 53 51 46 42 42 44 48 50 51 51 51 52 54 54 55 58 60 59 57 55 54 54 53 53 56 59 61 61 61 60 58 57 57 58 58 59 61 63 64 64 63 63 62
Height
10964 10961 10959 10958 10958 10958 10957 10956 10955 10953 10951 10949 10947 10946 10944 10943 10941 10939 10938 10937 10936 10935 10934 10934 10933 10933 10933 10933 10933 10933 10933 10934 10934 10934 10934 10933 10932 10931 10929 10928 10927 10927 10928 10928 10929 10930 10931 10932 10934 10935 10937 10938 10939 10939 10940 10940 10940 10939 10939 10940 10941 10941 10941 10941 10942 10942 10942 10941 10942 10942 10942 10942 10943 10943 10943 10944 10944 10944 10944 10944 10944 10943 10943 10943 10942
10963 10960 10958 10957 10956 10956 10956 10954 10953 10951 10950 10948 10946 10945 10943 10942 10940 10939 10938 10937 10936 10935 10934 10933 10933 10932 10932 10933 10933 10934 10934 10935 10935 10935 10935 10935 10934 10933 10931 10929 10927 10927 10927 10928 10928 10930 10931 10933 10934 10935 10936 10938 10939 10940 10940 10940 10940 10940 10940 10941 10941 10941 10941 10941 10941 10941 10942 10942 10942 10942 10942 10942 10943 10943 10943 10943 10944 10944 10943 10943 10943 10943 10943 10942 10941
10962 10960 10958 10957 10956 10955 10954 10953 10952 10950 10948 10947 10945 10944 10943 10941 10940 10939 10937 10936 10935 10934 10933 10932 10932 10932 10932 10932 10933 10934 10935 10935 10935 10935 10935 10935 10935 10934 10933 10931 10929 10928 10928 10928 10929 10930 10931 10933 10935 10936 10936 10938 10939 10940 10940 10940 10940 10940 10941 10941 10941 10941 10941 10941 10941 10941 10941 10942 10942 10942 10942 10942 10943 10943 10943 10943 10944 10943 10943 10943 10942 10942 10942 10942 10941
10963 10961 10959 10957 10956 10955 10954 10952 10951 10949 10948 10946 10945 10943 10942 10941 10939 10938 10937 10936 10935 10934 10933 10932 10932 10931 10931 10932 10933 10934 10935 10935 10935 10935 10935 10935 10936 10935 10934 10933 10932 10931 10930 10930 10930 10931 10932 10934 10936 10937 10938 10938 10939 10939 10940 10940 10940 10940 10940 10941 10941 10941 10940 10940 10940 10941 10942 10942 10942 10941 10941 10942 10943 10943 10943 10943 10944 10943 10943 10943 10943 10942 10942 10941 10940
10964 10962 10960 10958 10956 10955 10954 10952 10950 10949 10947 10946 10944 10943 10942 10940 10939 10937 10936 10935 10934 10933 10933 10932 10931 10931 10931 10932 10933 10934 10934 10935 10935 10935 10935 10936 10936 10936 10935 10934 10934 10933 10933 10932 10932 10932 10933 10934 10936 10938 10940 10940 10940 10940 10941 10941 10940 10939 10940 10941 10941 10941 10940 10940 10940 10941 10941 10942 10942 10941 10941 10942 10943 10943 10943 10943 10943 10943 10943 10943 10943 10942 10942 10941 10940
10964 10962 10960 10958 10957 10955 10954 10952 10950 10949 10947 10945 10944 10943 10941 10940 10938 10937 10936 10935 10934 10933 10932 10931 10931 10932 10932 10933 10933 10934 10934 10934 10935 10935 10936 10937 10938 10938 10937 10935 10935 10936 10935 10935 10935 10934 10934 10936 10937 10938 10940 10940 10940 10941 10942 10942 10940 10939 10939 10940 10940 10940 10940 10940 10940 10940 10941 10941 10941 10940 10940 10941 10942 10943 10943 10943 10943 10943 10943 10943 10943 10942 10941 10940 10939
10964 10962 10960 10958 10957 10956 10955 10953 10951 10949 10947 10945 10944 10942 10941 10939 10938 10936 10935 10934 10933 10933 10932 10932 10932 10933 10933 10934 10934 10934 10934 10935 10935 10935 10936 10937 10939 10940 10939 10937 10936 10937 10936 10936 10936 10936 10936 10936 10937 10938 10939 10940 10940 10940 10941 10942 10941 10939 10938 10939 10938 10938 10938 10938 10939 10939 10939 10939 10939 10940 10941 10942 10942 10942 10942 10943 10943 10943 10942 10942 10942 10941 10940 10939 10938
10966 10963 10961 10959 10958 10957 10956 10954 10952 10950 10948 10946 10944 10943 10941 10940 10938 10937 10936 10935 10934 10933 10933 10934 10934 10935 10935 10935 10935 10935 10935 10935 10935 10936 10936 10938 10940 10942 10942 10940 10937 10936 10937 10937 10937 10936 10937 10937 10937 10937 10938 10939 10939 10939 10940 10941 10941 10941 10941 10940 10938 10936 10935 10934 10936 10935 10936 10938 10938 10940 10941 10941 10942 10942 10942 10942 10942 10942 10942 10942 10941 10940 10940 10939 10938
10967 10965 10962 10961 10960 10959 10958 10956 10954 10951 10949 10947 10945 10944 10942 10941 10939 10937 10936 10936 10935 10935 10935 10936 10936 10936 10936 10936 10936 10935 10935 10935 10935 10936 10937 10938 10940 10942 10943 10942 10940 10937 10936 10937 10937 10936 10937 10937 10937 10937 10938 10938 10938 10938 10938 10939 10941 10942 10944 10944 10942 10938 10935 10934 10934 10934 10935 10937 10938 10939 10940 10941 10941 10941 10942 10942 10942 10941 10941 10941 10940 10940 10939 10938 10937
10969 10967 10964 10963 10962 10961 10960 10958 10955 10953 10951 10949 10947 10946 10944 10942 10940 10939 10938 10937 10937 10937 10938 10938 10938 10938 10937 10937 10937 10936 10936 10936 10936 10936 10937 10938 10940 10942 10944 10945 10945 10942 10938 10937 10936 10936 10936 10937 10937 10937 10938 10938 10938 10938 10938 10938 10940 10941 10944 10946 10945 10943 10940 10938 10936 10935 10936 10937 10938 10939 10939 10940 10940 10941 10941 10941 10941 10941 10940 10940 10940 10939 10938 10937 10936
10970 10968 10966 10965 10964 10963 10961 10959 10957 10955 10953 10951 10950 10949 10947 10945 10942 10941 10940 10940 10940 10940 10940 10940 10939 10939 10939 10938 10938 10937 10937 10936 10936 10936 10937 10937 10939 10940 10943 10945 10947 10947 10943 10940 10937 10936 10936 10936 10936 10937 10937 10938 10939 10939 10939 10939 10939 10940 10942 10944 10945 10944 10941 10939 10937 10936 10937 10937 10938 10938 10939 10939 10940 10940 10940 10940 10940 10940 10939 10939 10939 10938 10937 10936 10936
10972 10970 10968 10967 10967 10965 10964 10962 10960 10957 10956 10954 10953 10952 10950 10947 10945 10944 10943 10943 10943 10942 10942 10942 10941 10941 10941 10940 10939 10938 10938 10937 10937 10937 10937 10937 10938 10939 10940 10943 10946 10948 10948 10946 10943 10940 10939 10937 10937 10938 10939 10940 10940 10940 10940 10939 10939 10939 10940 10941 10942 10941 10940 10938 10937 10937 10937 10937 10937 10938 10938 10939 10939 10940 10940 10939 10939 10939 10939 10939 10938 10938 10937 10936 10935
10974 10972 10971 10970 10969 10968 10967 10965 10963 10960 10959 10957 10956 10954 10953 10951 10949 10948 10947 10947 10946 10946 10945 10945 10944 10944 10943 10942 10941 10940 10939 10939 10938 10938 10937 10937 10937 10938 10939 10941 10943 10946 10948 10948 10947 10945 10943 10941 10940 10940 10941 10941 10941 10941 10940 10939 10939 10939 10939 10939 10939 10939 10938 10938 10937 10937 10937 10937 10937 10937 10938 10938 10939 10939 10939 10939 10939 10939 10939 10939 10938 10937 10936 10935 10935
10976 10975 10973 10973 10972 10971 10970 10968 10965 10964 10962 10960 10959 10958 10956 10955 10954 10953 10952 10951 10950 10949 10948 10948 10947 10946 10945 10944 10943 10943 10941 10941 10940 10939 10938 10938 10938 10938 10939 10940 10942 10943 10945 10946 10946 10945 10944 10942 10941 10941 10941 10941 10941 10941 10940 10939 10938 10938 10938 10938 10938 10937 10937 10937 10937 10936 10937 10937 10937 10937 10938 10938 10938 10939 10939 10939 10939 10939 10939 10939 10938 10937 10936 10935 10935
10979 10977 10976 10975 10975 10974 10973 10971 10969 10967 10965 10963 10962 10961 10960 10959 10958 10957 10955 10954 10953 10952 10951 10950 10949 10949 10948 10947 10946 10945 10944 10943 10942 10941 10940 10940 10940 10940 10941 10941 10942 10942 10943 10943 10943 10943 10942 10941 10941 10941 10940 10940 10940 10940 10939 10938 10938 10937 10937 10937 10937 10936 10936 10936 10936 10936 10936 10936 10937 10937 10937 10938 10938 10938 10938 10939 10939 10939 10939 10938 10937 10936 10935 10935 10934
10981 10979 10978 10978 10978 10977 10975 10975 10973 10970 10969 10966 10965 10965 10964 10963 10962 10960 10959 10958 10957 10955 10954 10953 10952 10952 10951 10950 10949 10948 10947 10946 10945 10944 10944 10943 10943 10943 10943 10943 10943 10943 10943 10942 10942 10942 10941 10940 10940 10940 10940 10939 10939 10939 10938 10938 10937 10937 10937 10936 10936 10936 10935 10935 10935 10935 10936 10936 10936 10936 10937 10937 10937 10938 10938 10938 10938 10938 10937 10937 10936 10935 10935 10934 10933
10983 10981 10980 10980 10980 10980 10978 10977 10976 10974 10972 10970 10969 10968 10968 10967 10965 10964 10962 10961 10960 10958 10957 10956 10955 10955 10954 10953 10952 10951 10950 10949 10948 10948 10947 10946 10945 10945 10945 10944 10944 10944 10943 10943 10942 10942 10941 10941 10940 10940 10939 10939 10939 10938 10938 10937 10936 10936 10936 10936 10935 10935 10935 10934 10935 10935 10935 10935 10935 10936 10936 10936 10937 10937 10937 10937 10937 10937 10936 10936 10935 10935 10934 10933 10933
10985 10983 10982 10982 10982 10981 10980 10979 10978 10977 10975 10973 10972 10972 10971 10970 10968 10967 10965 10964 10963 10962 10961 10960 10959 10958 10957 10957 10956 10955 10953 10953 10952 10951 10950 10949 10948 10947 10946 10946 10945 10945 10944 10944 10943 10943 10942 10942 10941 10940 10940 10939 10939 10938 10937 10937 10936 10935 10935 10934 10934 10934 10934 10933 10934 10934 10934 10934 10934 10935 10935 10935 10936 10936 10936 10936 10936 10935 10935 10935 10935 10934 10933 10933 10932
10986 10984 10983 10983 10983 10983 10982 10981 10980 10979 10978 10976 10975 10974 10974 10973 10971 10970 10968 10967 10967 10966 10964 10963 10962 10962 10961 10960 10959 10959 10957 10957 10955 10954 10953 10952 10951 10949 10948 10948 10947 10946 10946 10945 10944 10944 10943 10943 10942 10941 10940 10940 10939 10939 10938 10937 10936 10935 10934 10933 10933 10933 10932 10932 10932 10932 10933 10933 10933 10934 10934 10935 10935 10935 10935 10935 10935 10935 10935 10934 10934 10934 10933 10932 10932
10987 10986 10985 10984 10984 10984 10984 10983 10982 10982 10980 10979 10978 10977 10976 10975 10974 10973 10972 10970 10970 10969 10968 10967 10966 10965 10964 10963 10963 10962 10961 10960 10959 10958 10957 10955 10954 10952 10951 10950 10949 10948 10947 10947 10946 10945 10944 10944 10943 10942 10941 10941 10940 10939 10938 10937 10936 10935 10934 10933 10933 10932 10932 10932 10931 10931 10932 10932 10932 10933 10933 10934 10934 10934 10934 10934 10934 10934 10934 10934 10934 10933 10933 10933 10932
10989 10987 10986 10986 10986 10986 10985 10985 10984 10984 10983 10982 10981 10980 10979 10978 10977 10976 10975 10974 10973 10972 10971 10970 10969 10968 10967 10967 10966 10965 10964 10963 10962 10961 10961 10959 10957 10956 10954 10953 10952 10951 10950 10949 10948 10947 10946 10945 10944 10943 10943 10942 10941 10940 10939 10938 10938 10937 10935 10934 10933 10932 10932 10931 10931 10931 10931 10931 10932 10932 10932 10933 10933 10933 10933 10934 10934 10934 10934 10934 10934 10934 10934 10934 10934
10990 10988 10987 10987 10987 10987 10987 10987 10986 10986 10985 10984 10983 10982 10982 10981 10980 10979 10978 10977 10976 10975 10974 10973 10973 10972 10971 10970 10969 10968 10967 10966 10966 10965 10964 10962 10961 10960 10958 10957 10955 10954 10953 10951 10950 10949 10948 10946 10946 10945 10944 10943 10942 10941 10940 10939 10939 10938 10936 10935 10934 10933 10932 10932 10931 10931 10931 10931 10932 10932 10932 10932 10933 10933 10934 10934 10934 10934 10934 10934 10934 10935 10935 10936 10936
10991 10990 10989 10989 10989 10989 10989 10988 10988 10988 10987 10986 10985 10985 10984 10984 10983 10982 10981 10980 10979 10978 10977 10977 10976 10975 10974 10973 10972 10971 10970 10970 10969 10968 10967 10966 10964 10963 10961 10960 10958 10957 10956 10954 10953 10951 10950 10949 10948 10947 10946 10945 10944 10942 10941 10940 10940 10939 10938 10936 10935 10934 10934 10933 10932 10932 10932 10932 10932 10932 10933 10933 10933 10934 10935 10935 10935 10935 10935 10936 10936 10937 10937 10938 10939
10992 10991 10990 10990 10990 10990 10990 10990 10990 10989 10989 10988 10987 10987 10987 10986 10985 10984 10984 10983 10982 10981 10980 10980 10979 10978 10977 10976 10975 10974 10973 10973 10972 10971 10970 10969 10967 10966 10965 10963 10961 10960 10958 10957 10956 10954 10953 10951 10950 10949 10948 10947 10946 10945 10943 10942 10942 10941 10939 10938 10936 10936 10935 10934 10934 10934 10933 10933 10933 10933 10933 10934 10934 10935 10936 10936 10936 10937 10937 10938 10938 10939 10940 10941 10942
10993 10992 10991 10991 10992 10992 10992 10992 10991 10991 10990 10990 10989 10989 10989 10988 10987 10987 10986 10985 10984 10984 10983 10983 10982 10981 10980 10979 10978 10977 10976 10975 10975 10974 10973 10972 10971 10969 10968 10966 10964 10962 10961 10959 10958 10957 10956 10954 10953 10952 10950 10949 10948 10947 10946 10945 10944 10943 10941 10940 10938 10937 10937 10936 10936 10935 10935 10935 10935 10935 10935 10936 10936 10937 10937 10938 10938 10939 10939 10940 10941 10942 10942 10943 10944
10994 10993 10992 10993 10993 10993 10994 10994 10993 10993 10992 10991 10991 10991 10991 10990 10989 10989 10988 10987 10987 10986 10986 10985 10984 10983 10982 10982 10981 10980 10979 10978 10978 10977 10976 10975 10974 10972 10971 10969 10967 10966 10964 10962 10960 10959 10958 10957 10955 10954 10953 10951 10950 10949 10949 10948 10946 10945 10944 10942 10941 10940 10940 10940 10939 10938 10937 10937 10937 10938 10938 10939 10939 10939 10940 10940 10941 10941 10942 10942 10943 10944 10945 10945 10946
10995 10994 10993 10994 10994 10995 10995 10995 10995 10994 10994 10993 10993 10993 10993 10992 10992 10991 10990 10990 10989 10988 10988 10987 10986 10986 10985 10984 10983 10983 10982 10981 10980 10980 10979 10978 10977 10975 10974 10972 10971 10968 10966 10964 10963 10961 10960 10959 10958 10956 10955 10954 10953 10952 10951 10950 10949 10948 10947 10945 10944 10943 10943 10943 10943 10942 10941 10941 10941 10941 10942 10942 10942 10942 10942 10943 10943 10944 10944 10945 10945 10946 10946 10947 10947
10996 10995 10994 10995 10995 10996 10996 10997 10996 10996 10995 10994 10994 10994 10995 10994 10994 10993 10993 10992 10991 10991 10990 10989 10989 10988 10987 10987 10986 10985 10985 10984 10983 10983 10982 10981 10980 10978 10977 10975 10973 10971 10969 10967 10965 10963 10962 10961 10960 10959 10958 10956 10955 10955 10954 10953 10952 10951 10950 10949 10948 10947 10947 10947 10946 10945 10945 10945 10945 10945 10945 10945 10944 10944 10944 10945 10945 10946 10946 10947 10947 10948 10948 10948 10949
10997 10995 10995 10996 10996 10997 10998 10998 10998 10997 10996 10996 10995 10996 10996 10996 10996 10995 10995 10994 10994 10993 10992 10991 10991 10990 10989 10989 10988 10988 10987 10987 10986 10985 10984 10984 10982 10981 10980 10978 10976 10974 10972 10970 10968 10966 10964 10963 10962 10961 10960 10959 10958 10957 10956 10956 10954 10953 10952 10951 10951 10950 10951 10950 10949 10949 10949 10949 10949 10948 10948 10947 10947 10947 10947 10947 10948 10948 10948 10949 10949 10949 10950 10950 10951
10997 10996 10996 10997 10997 10998 10999 10999 10999 10999 10998 10997 10997 10997 10998 10998 10998 10997 10997 10996 10996 10995 10994 10993 10993 10992 10992 10992 10991 10990 10990 10990 10989 10988 10987 10986 10985 10983 10982 10981 10979 10977 10975 10973 10971 10969 10967 10965 10964 10963 10962 10961 10960 10959 10958 10957 10957 10956 10954 10954 10953 10954 10953 10952 10952 10952 10952 10952 10951 10951 10951 10950 10950 10950 10950 10950 10950 10950 10951 10951 10951 10951 10951 10952 10952
10998 10996 10996 10998 10998 10999 11000 11000 11000 11000 10999 10999 10999 10999 11000 11000 11000 10999 10999 10998 10998 10997 10996 10995 10995 10994 10994 10994 10994 10993 10993 10992 10991 10990 10989 10988 10987 10986 10984 10983 10981 10979 10978 10976 10974 10972 10970 10968 10967 10966 10964 10963 10962 10961 10960 10959 10959 10958 10957 10956 10956 10956 10956 10955 10954 10953 10953 10953 10953 10953 10953 10953 10953 10953 10953 10953 10953 10952 10952 10952 10952 10953 10953 10953 10953
10999 10997 10997 10998 10999 11000 11001 11001 11002 11002 11001 11001 11001 11001 11001 11002 11002 11001 11001 11000 11000 10999 10998 10998 10997 10997 10997 10997 10996 10995 10995 10994 10993 10993 10992 10991 10990 10988 10986 10985 10983 10982 10981 10979 10977 10975 10973 10971 10970 10968 10967 10966 10965 10964 10962 10961 10961 10960 10959 10958 10958 10957 10957 10956 10956 10955 10955 10954 10954 10955 10955 10955 10955 10955 10955 10955 10955 10954 10954 10954 10954 10954 10954 10954 10954
11000 10998 10998 10999 11000 11001 11002 11002 11003 11003 11003 11003 11003 11003 11003 11004 11004 11003 11003 11002 11002 11001 11001 11000 11000 11000 10999 10999 10998 10998 10997 10996 10996 10995 10995 10994 10992 10990 10989 10988 10986 10984 10983 10982 10980 10978 10976 10975 10973 10971 10970 10969 10968 10967 10966 10964 10963 10962 10962 10961 10959 10959 10958 10957 10957 10957 10956 10955 10955 10955 10956 10956 10956 10956 10956 10956 10956 10956 10955 10955 10955 10955 10955 10955 10955
11001 11000 11000 11000 11001 11002 11002 11003 11004 11004 11004 11005 11004 11004 11005 11005 11005 11005 11005 11004 11004 11004 11003 11003 11003 11002 11002 11001 11000 11000 10999 10998 10998 10997 10997 10996 10995 10993 10992 10990 10989 10987 10986 10985 10983 10981 10979 10977 10976 10975 10974 10973 10972 10970 10969 10968 10967 10966 10964 10963 10962 10960 10959 10959 10958 10958 10957 10956 10956 10956 10956 10956 10957 10957 10957 10957 10957 10957 10956 10956 10956 10956 10956 10956 10956
11002 11001 11001 11001 11002 11003 11003 11004 11005 11005 11005 11006 11006 11006 11006 11007 11007 11007 11006 11006 11006 11006 11006 11006 11005 11004 11004 11003 11002 11001 11001 11000 11000 10999 10999 10998 10997 10996 10995 10993 10991 10990 10989 10987 10986 10984 10982 10981 10979 10978 10977 10976 10975 10974 10973 10971 10970 10969 10967 10966 10965 10963 10962 10961 10960 10959 10958 10957 10957 10957 10956 10956 10957 10957 10957 10957 10957 10957 10957 10957 10957 10957 10957 10957 10958
11004 11003 11002 11002 11003 11003 11004 11004 11005 11006 11006 11007 11007 11007 11008 11008 11008 11008 11007 11007 11008 11008 11008 11008 11007 11006 11006 11005 11005 11004 11003 11002 11002 11001 11001 11000 10999 10998 10997 10995 10994 10992 10991 10990 10989 10987 10985 10984 10982 10981 10980 10979 10978 10977 10976 10975 10973 10972 10970 10969 10967 10965 10963 10963 10962 10961 10960 10959 10958 10957 10957 10957 10956 10956 10956 10956 10956 10957 10957 10957 10957 10958 10958 10958 10959
11004 11004 11003 11003 11003 11004 11004 11005 11006 11007 11007 11008 11008 11008 11009 11009 11009 11009 11008 11009 11009 11010 11010 11009 11009 11008 11008 11008 11007 11006 11005 11005 11004 11004 11003 11002 11001 11000 10999 10998 10996 10995 10994 10993 10991 10990 10988 10987 10986 10984 10983 10982 10981 10980 10979 10978 10976 10975 10973 10971 10969 10967 10965 10964 10963 10962 10961 10959 10958 10957 10957 10956 10956 10956 10955 10955 10956 10956 10957 10957 10958 10958 10959 10959 10960
11005 11004 11003 11003 11003 11004 11005 11005 11006 11007 11008 11008 11009 11009 11010 11010 11010 11010 11009 11010 11010 11011 11011 11011 11010 11010 11010 11010 11009 11008 11008 11007 11007 11007 11006 11005 11004 11003 11002 11000 10999 10998 10997 10996 10994 10993 10991 10990 10988 10987 10986 10985 10984 10983 10982 10981 10979 10978 10976 10974 10972 10970 10968 10966 10965 10963 10961 10960 10958 10957 10956 10956 10956 10955 10955 10955 10956 10956 10957 10958 10958 10959 10960 10960 10961
11005 11005 11004 11003 11003 11004 11005 11006 11007 11007 11008 11009 11009 11010 11010 11011 11011 11010 11010 11010 11011 11012 11012 11012 11011 11011 11012 11011 11011 11010 11010 11010 11010 11009 11009 11008 11007 11006 11005 11003 11002 11001 11000 10999 10997 10996 10994 10992 10991 10990 10989 10988 10987 10986 10985 10984 10982 10981 10979 10977 10975 10972 10970 10968 10966 10964 10962 10960 10959 10957 10956 10956 10955 10955 10955 10955 10955 10956 10957 10958 10959 10960 10961 10962 10963
11005 11005 11004 11003 11003 11004 11005 11006 11007 11008 11009 11009 11010 11011 11011 11011 11011 11011 11011 11011 11012 11013 11013 11012 11013 11013 11013 11013 11012 11012 11011 11011 11011 11011 11010 11009 11009 11008 11007 11006 11004 11003 11002 11001 11000 10999 10997 10995 10994 10993 10992 10991 10990 10989 10988 10987 10985 10983 10981 10979 10977 10975 10973 10970 10968 10966 10964 10962 10960 10958 10957 10956 10956 10955 10955 10955 10956 10957 10958 10959 10960 10961 10962 10964 10965
11005 11005 11004 11004 11003 11003 11004 11006 11007 11008 11009 11009 11010 11011 11012 11012 11012 11012 11012 11012 11013 11013 11013 11014 11014 11014 11014 11013 11013 11013 11013 11013 11012 11012 11012 11011 11010 11009 11009 11008 11007 11005 11004 11003 11002 11001 11000 10998 10997 10996 10995 10994 10992 10991 10991 10990 10988 10986 10984 10982 10980 10978 10976 10973 10971 10969 10966 10964 10962 10960 10959 10958 10957 10957 10957 10957 10957 10958 10960 10961 10962 10963 10965 10966 10967
11005 11004 11004 11004 11003 11003 11003 11005 11006 11008 11009 11009 11010 11011 11012 11013 11013 11013 11013 11013 11014 11014 11014 11015 11015 11015 11015 11014 11014 11014 11014 11014 11014 11014 11013 11013 11012 11011 11011 11010 11009 11007 11006 11005 11004 11003 11002 11001 11000 10999 10998 10996 10995 10994 10993 10992 10990 10989 10987 10985 10984 10982 10979 10977 10975 10972 10969 10966 10964 10963 10962 10961 10960 10959 10959 10959 10960 10961 10962 10963 10965 10966 10967 10968 10969
11004 11004 11003 11003 11003 11003 11003 11004 11006 11008 11009 11009 11010 11011 11012 11013 11013 11013 11013 11014 11014 11015 11015 11016 11016 11016 11016 11016 11016 11016 11016 11016 11016 11015 11015 11014 11014 11013 11013 11012 11011 11009 11008 11007 11006 11005 11004 11003 11002 11002 11001 10999 10998 10997 10996 10994 10993 10992 10990 10989 10988 10985 10983 10981 10979 10976 10973 10971 10969 10967 10966 10964 10963 10962 10962 10962 10963 10964 10965 10966 10967 10969 10969 10970 10971
11003 11003 11003 11002 11002 11003 11003 11004 11005 11007 11008 11009 11010 11011 11012 11013 11014 11014 11014 11015 11015 11016 11016 11017 11017 11017 11017 11017 11017 11018 11018 11017 11017 11016 11016 11016 11016 11015 11015 11014 11013 11011 11010 11009 11008 11007 11007 11005 11004 11004 11003 11002 11001 11000 10999 10997 10996 10995 10994 10993 10991 10989 10987 10985 10983 10981 10978 10976 10974 10972 10970 10968 10967 10966 10966 10966 10966 10967 10968 10969 10970 10971 10972 10972 10973
11002 11002 11002 11002 11002 11002 11003 11003 11004 11006 11007 11008 11009 11011 11012 11013 11014 11014 11015 11015 11016 11016 11017 11017 11018 11018 11018 11018 11018 11018 11018 11018 11018 11018 11017 11017 11017 11017 11016 11015 11014 11013 11012 11011 11010 11010 11009 11007 11006 11006 11005 11004 11004 11003 11002 11001 11000 10999 10997 10996 10995 10993 10991 10989 10988 10986 10983 10980 10979 10978 10976 10973 10971 10970 10970 10970 10970 10971 10972 10972 10973 10974 10974 10974 10975
11001 11001 11001 11001 11001 11002 11003 11003 11004 11005 11007 11007 11009 11010 11011 11013 11013 11014 11015 11015 11016 11017 11017 11018 11018 11018 11018 11019 11019 11019 11019 11019 11019 11019 11019 11019 11019 11018 11017 11017 11016 11015 11014 11013 11012 11012 11011 11010 11009 11008 11008 11007 11006 11006 11005 11004 11003 11002 11001 10999 10998 10996 10994 10992 10992 10990 10988 10985 10984 10983 10981 10978 10975 10974 10974 10974 10974 10975 10975 10976 10976 10976 10977 10977 10977
10999 11000 11000 11000 11000 11001 11002 11003 11004 11005 11006 11007 11008 11009 11011 11012 11013 11014 11015 11015 11016 11017 11018 11018 11018 11019 11019 11019 11020 11020 11020 11020 11020 11020 11020 11020 11020 11019 11019 11018 11017 11017 11016 11015 11014 11014 11013 11012 11011 11011 11010 11010 11009 11008 11008 11006 11005 11004 11003 11002 11001 10999 10997 10996 10995 10994 10991 10990 10989 10988 10986 10983 10981 10979 10979 10978 10978 10978 10979 10979 10979 10979 10979 10979 10979
10998 10998 10999 10999 11000 11000 11002 11003 11003 11004 11005 11006 11008 11009 11010 11012 11013 11014 11015 11015 11016 11017 11018 11018 11019 11019 11020 11020 11021 11021 11021 11021 11021 11021 11021 11021 11021 11021 11020 11019 11019 11018 11017 11017 11016 11016 11015 11014 11014 11013 11013 11012 11011 11010 11010 11008 11007 11006 11005 11005 11004 11002 11000 10998 10997 10996 10995 10993 10993 10992 10990 10988 10985 10984 10983 10983 10982 10982 10982 10982 10982 10982 10982 10981 10981
10996 10997 10997 10998 10999 10999 11000 11002 11003 11003 11004 11005 11007 11008 11010 11011 11012 11013 11015 11016 11017 11018 11018 11019 11019 11020 11021 11021 11022 11022 11022 11022 11022 11022 11022 11022 11022 11022 11021 11021 11020 11020 11019 11018 11018 11017 11017 11016 11016 11015 11014 11014 11013 11012 11012 11010 11009 11008 11007 11006 11006 11005 11003 11001 11000 10999 10997 10997 10996 10995 10993 10991 10990 10988 10987 10987 10986 10986 10985 10985 10985 10985 10984 10983 10983
10994 10995 10996 10997 10997 10998 10999 11001 11002 11003 11004 11005 11006 11008 11009 11011 11012 11013 11015 11016 11017 11018 11019 11019 11020 11021 11021 11022 11022 11022 11023 11023 11023 11023 11023 11023 11023 11022 11022 11021 11021 11021 11020 11020 11019 11019 11018 11018 11017 11017 11016 11015 11015 11014 11013 11012 11011 11010 11009 11008 11008 11007 11005 11003 11002 11002 11001 11000 10999 10998 10996 10994 10993 10992 10991 10990 10990 10990 10989 10988 10988 10987 10987 10986 10985
10992 10993 10994 10995 10996 10997 10998 10999 11001 11002 11003 11004 11006 11007 11009 11010 11012 11013 11014 11015 11016 11017 11019 11020 11020 11021 11022 11022 11023 11023 11023 11024 11024 11024 11024 11024 11024 11023 11023 11022 11022 11022 11021 11021 11021 11020 11019 11019 11018 11018 11018 11017 11016 11015 11015 11014 11013 11012 11011 11010 11010 11009 11007 11005 11005 11005 11004 11002 11001 11000 10998 10996 10996 10995 10994 10993 10993 10993 10992 10991 10990 10989 10989 10988 10987